Location: Oberwangen
(47.4286°N, 8.9679°E)
Time: 22:17:18
(UTC+00:00)

Cosmos 1943 Rocket - Pass Details

Date: 20 June 2021
Orbit: 813 x 842 km, 71.0° (Epoch: 23 July)

Event Time Altitude Azimuth Distance (km) Brightness Sun altitude
Rises 23:18:18 0° 331° (NNW) 3,348 6.4 -19.1°
Reaches altitude 10° 23:20:44 10° 331° (NNW) 2,412 5.5 -19.1°
Maximum altitude 23:26:15 80° 245° (WSW) 834 2.1 -19.1°
Enters shadow 23:28:41 35° 164° (SSE) 1,307 2.7 -19.1°
